F4FTJ-13 Weather Reports


time (UTC)temp
C
wind
direction
speed
KPH
gust
KPH
rain 1hr
cm
rain 24hr
cm
rain mn
cm
humidity
%
barometer
mb
20260507154037 18 106 1.6 9.7 0.00 0.00 0.00 61 1013.5
20260507153537 18 105 3.2 11.3 0.00 0.00 0.00 63 1013.4
20260507153037 17 101 3.2 11.3 0.00 0.00 0.00 59 1013.7
20260507152037 18 99 1.6 3.2 0.00 0.00 0.00 57 1013.5
20260507151538 18 88 1.6 6.4 0.00 0.00 0.00 55 1013.6
20260507151037 18 84 0.0 6.4 0.00 0.00 0.00 60 1013.4
20260507150537 19 87 0.0 6.4 0.00 0.00 0.00 59 1013.8
20260507150037 17 97 0.0 6.4 0.00 0.00 0.00 62 1013.8
20260507145037 17 106 4.8 9.7 0.00 0.00 0.00 61 1013.8
20260507144537 17 118 4.8 9.7 0.00 0.00 0.00 58 1014.1
20260507144037 18 118 1.6 6.4 0.00 0.00 0.00 63 1013.9
20260507143537 18 104 1.6 9.7 0.00 0.00 0.00 61 1014.0
20260507143038 18 97 3.2 9.7 0.00 0.00 0.00 61 1014.3
20260507142537 18 100 1.6 6.4 0.00 0.00 0.00 59 1014.0
20260507142037 18 97 1.6 6.4 0.00 0.00 0.00 60 1014.0
20260507141537 17 90 3.2 6.4 0.00 0.00 0.00 58 1014.2
20260507141037 18 80 1.6 6.4 0.00 0.00 0.00 60 1014.2
20260507135537 17 90 3.2 6.4 0.00 0.00 0.00 62 1014.4
20260507135037 17 90 3.2 6.4 0.00 0.00 0.00 65 1014.4
20260507134537 17 90 0.0 3.2 0.00 0.00 0.00 64 1014.6
20260507134037 17 90 0.0 6.4 0.00 0.00 0.00 64 1014.4
20260507133538 16 81 3.2 6.4 0.00 0.00 0.00 61 1014.5
20260507133037 17 85 0.0 11.3 0.00 0.00 0.00 64 1014.5
20260507132537 16 86 3.2 11.3 0.00 0.00 0.00 67 1014.6
20260507132037 17 77 3.2 6.4 0.00 0.00 0.00 61 1014.3
20260507131538 17 76 0.0 6.4 0.00 0.00 0.00 63 1014.6
20260507131037 17 86 1.6 11.3 0.00 0.00 0.00 67 1014.7
20260507130537 16 88 3.2 11.3 0.00 0.00 0.00 64 1014.4
20260507130037 17 79 4.8 9.7 0.00 0.00 0.00 62 1014.5
20260507125538 18 86 3.2 9.7 0.00 0.00 0.00 61 1014.7
20260507125037 18 111 0.0 3.2 0.00 0.00 0.00 63 1014.7
20260507124538 17 90 0.0 3.2 0.00 0.00 0.00 65 1014.9
20260507123538 17 69 0.0 3.2 0.00 0.00 0.00 61 1014.9
20260507123037 17 76 0.0 12.9 0.00 0.00 0.00 64 1014.8
20260507122537 16 87 0.0 12.9 0.00 0.00 0.00 64 1014.8
20260507122037 17 94 6.4 12.9 0.00 0.00 0.00 66 1014.8
20260507121037 16 35 1.6 3.2 0.00 0.00 0.00 66 1015.0
20260507120537 16 22 1.6 3.2 0.00 0.00 0.00 66 1015.1
20260507120037 17 25 1.6 3.2 0.00 0.00 0.00 60 1015.0
20260507115537 17 42 1.6 3.2 0.00 0.00 0.00 64 1014.9
20260507114537 16 83 0.0 11.3 0.00 0.00 0.00 68 1015.1
20260507114037 16 87 1.6 11.3 0.00 0.00 0.00 72 1015.1
20260507113537 16 82 1.6 9.7 0.00 0.00 0.00 70 1015.2
20260507113037 17 74 3.2 9.7 0.00 0.00 0.00 67 1015.2
20260507112037 15 98 6.4 9.7 0.00 0.00 0.00 69 1015.3
20260507111038 17 121 1.6 9.7 0.00 0.00 0.00 63 1015.1
20260507110537 17 110 0.0 9.7 0.00 0.00 0.00 62 1015.2
20260507110038 17 83 3.2 6.4 0.00 0.00 0.00 64 1015.4
20260507105537 16 41 0.0 6.4 0.00 0.00 0.00 72 1015.5
20260507105037 16 34 1.6 6.4 0.00 0.00 0.00 67 1015.3
20260507104537 17 92 0.0 6.4 0.00 0.00 0.00 67 1015.4
20260507104038 17 110 1.6 6.4 0.00 0.00 0.00 64 1015.3
20260507103537 17 105 3.2 6.4 0.00 0.00 0.00 65 1015.3
20260507103037 16 69 4.8 6.4 0.00 0.00 0.00 65 1015.5
20260507102537 18 71 0.0 6.4 0.00 0.00 0.00 67 1015.3
20260507102037 17 94 1.6 9.7 0.00 0.00 0.00 69 1015.4
20260507101537 16 83 1.6 9.7 0.00 0.00 0.00 70 1015.5
20260507101037 16 63 3.2 6.4 0.00 0.00 0.00 68 1015.6
20260507100537 17 87 3.2 9.7 0.00 0.00 0.00 63 1015.5
20260507095537 16 77 4.8 9.7 0.00 0.00 0.00 67 1015.5
20260507095037 17 50 3.2 6.4 0.00 0.00 0.00 71 1015.5
20260507094537 16 64 1.6 9.7 0.00 0.00 0.00 68 1015.6
20260507094037 16 80 0.0 9.7 0.00 0.00 0.00 71 1015.5
20260507093537 16 85 3.2 6.4 0.00 0.00 0.00 71 1015.6
20260507093037 16 93 1.6 6.4 0.00 0.00 0.00 69 1015.5
20260507092537 15 97 1.6 6.4 0.00 0.00 0.00 72 1015.4
20260507091037 15 100 1.6 9.7 0.00 0.00 0.00 73 1015.4
20260507090537 14 114 3.2 9.7 0.00 0.00 0.00 76 1015.2
20260507090037 14 104 3.2 9.7 0.00 0.00 0.00 74 1015.6
20260507085537 14 90 3.2 9.7 0.00 0.00 0.00 76 1015.6
20260507085037 15 90 3.2 3.2 0.00 0.00 0.00 74 1015.4
20260507084537 15 89 1.6 6.4 0.00 0.00 0.00 78 1015.4
20260507084037 14 81 0.0 6.4 0.00 0.00 0.00 80 1015.4
20260507083537 15 76 1.6 6.4 0.00 0.00 0.00 75 1015.4
20260507082537 13 86 3.2 6.4 0.00 0.00 0.00 80 1015.3
20260507082037 13 95 1.6 6.4 0.00 0.00 0.00 79 1015.5
20260507081537 14 96 0.0 6.4 0.00 0.00 0.00 82 1015.2
20260507081037 13 90 3.2 6.4 0.00 0.00 0.00 80 1015.2
20260507080537 13 100 0.0 6.4 0.00 0.00 0.00 83 1015.3
20260507080037 13 100 3.2 6.4 0.00 0.03 0.00 81 1015.4
20260507075537 13 90 0.0 6.4 0.00 0.03 0.00 83 1015.4
20260507075037 13 90 1.6 6.4 0.00 0.03 0.00 82 1015.1
20260507074537 14 90 0.0 3.2 0.00 0.03 0.00 81 1015.4
20260507074037 13 90 0.0 6.4 0.00 0.03 0.00 84 1015.5
20260507073537 13 93 1.6 6.4 0.00 0.03 0.00 84 1015.2
20260507073037 12 95 3.2 6.4 0.00 0.03 0.00 88 1015.2
20260507072537 11 92 3.2 9.7 0.00 0.03 0.00 88 1015.3
20260507072037 11 90 4.8 9.7 0.00 0.03 0.00 88 1015.1
20260507071037 12 90 0.0 3.2 0.00 0.03 0.00 88 1015.1
20260507070537 11 81 1.6 3.2 0.00 0.03 0.00 88 1015.0
20260507070037 11 75 0.0 3.2 0.00 0.03 0.00 91 1015.2
20260507065537 11 76 0.0 3.2 0.00 0.03 0.00 93 1015.2
20260507065037 10 60 0.0 3.2 0.00 0.05 0.00 95 1015.3
20260507064537 9 52 1.6 3.2 0.00 0.05 0.00 97 1015.2
20260507064037 8 0 0.0 0.0 0.00 0.05 0.00 98 1015.1
20260507063537 8 0 0.0 0.0 0.00 0.05 0.00 99 1015.1
20260507063037 9 0 0.0 0.0 0.00 0.05 0.00 99 1015.4
20260507062537 8 45 0.0 3.2 0.00 0.10 0.00 99 1015.5
20260507061036 8 0 0.0 0.0 0.00 0.10 0.00 99 1015.4
20260507060537 7 0 0.0 0.0 0.00 0.10 0.00 99 1015.0
20260507055037 7 0 0.0 0.0 0.00 0.10 0.00 99 1015.2
20260507054537 7 0 0.0 0.0 0.00 0.10 0.00 99 1015.1
20260507053537 7 0 0.0 0.0 0.00 0.10 0.00 99 1014.9
20260507053037 6 0 0.0 0.0 0.00 0.10 0.00 99 1015.0
20260507052537 6 0 0.0 0.0 0.00 0.10 0.00 99 1014.6
20260507052037 5 0 0.0 0.0 0.00 0.10 0.00 99 1014.7
20260507051537 3 0 0.0 0.0 0.00 0.10 0.00 99 1014.7
20260507051037 3 0 0.0 0.0 0.00 0.10 0.00 99 1014.7
20260507050537 3 0 0.0 0.0 0.00 0.10 0.00 99 1014.7
20260507045537 2 0 0.0 0.0 0.00 0.10 0.00 99 1014.7
20260507045037 2 0 0.0 0.0 0.00 0.10 0.00 99 1014.6
20260507044538 2 0 0.0 0.0 0.00 0.10 0.00 99 1014.6
20260507044037 2 0 0.0 0.0 0.00 0.10 0.00 99 1014.5
20260507043537 2 0 0.0 0.0 0.00 0.10 0.00 99 1014.5
20260507043037 2 0 0.0 0.0 0.00 0.10 0.00 99 1014.6
20260507042037 3 0 0.0 0.0 0.00 0.10 0.00 99 1014.6
20260507041537 3 0 0.0 0.0 0.00 0.10 0.00 99 1014.3
20260507041037 3 0 0.0 0.0 0.00 0.10 0.00 99 1014.4
20260507040537 3 0 0.0 0.0 0.00 0.10 0.00 99 1014.6
20260507040037 3 0 0.0 0.0 0.00 0.10 0.00 99 1014.5
20260507035537 3 0 0.0 0.0 0.00 0.10 0.00 99 1014.4
20260507034537 3 0 0.0 0.0 0.00 0.10 0.00 99 1014.4
20260507034037 3 0 0.0 0.0 0.00 0.10 0.00 99 1014.5
20260507033537 4 0 0.0 0.0 0.00 0.10 0.00 99 1014.5
20260507033036 3 0 0.0 0.0 0.00 0.10 0.00 99 1014.4
20260507032537 4 0 0.0 0.0 0.00 0.10 0.00 99 1014.4
20260507031537 4 0 0.0 0.0 0.00 0.10 0.00 99 1014.3
20260507031037 4 0 0.0 0.0 0.00 0.10 0.00 99 1014.6
20260507030537 4 0 0.0 0.0 0.00 0.10 0.00 99 1014.4
20260507030037 4 0 0.0 0.0 0.00 0.10 0.00 99 1014.5
20260507025536 4 0 0.0 0.0 0.00 0.10 0.00 99 1014.4
20260507025037 4 0 0.0 0.0 0.00 0.10 0.00 99 1014.5
20260507024537 5 0 0.0 0.0 0.00 0.10 0.00 99 1014.2
20260507024037 5 0 0.0 0.0 0.00 0.10 0.00 99 1014.3
20260507023537 5 0 0.0 0.0 0.00 0.13 0.00 99 1014.4
20260507022536 5 0 0.0 0.0 0.00 0.13 0.00 99 1014.5
20260507022037 5 0 0.0 0.0 0.00 0.13 0.00 99 1014.3
20260507021537 5 0 0.0 0.0 0.00 0.15 0.00 99 1014.3
20260507021036 5 0 0.0 0.0 0.00 0.15 0.00 99 1014.4
20260507020538 6 0 0.0 0.0 0.00 0.15 0.00 99 1014.2
20260507020037 6 0 0.0 0.0 0.00 0.15 0.00 99 1014.5
20260507015537 5 0 0.0 0.0 0.00 0.18 0.00 99 1014.3
20260507015037 6 0 0.0 0.0 0.00 0.18 0.00 99 1014.2
20260507014536 6 0 0.0 0.0 0.00 0.20 0.00 99 1014.2
20260507014037 6 0 0.0 0.0 0.00 0.23 0.00 99 1014.4
20260507013036 6 0 0.0 0.0 0.00 0.36 0.00 99 1013.9
20260507012537 6 0 0.0 0.0 0.00 0.46 0.00 99 1013.9
20260507012037 7 0 0.0 0.0 0.00 0.53 0.00 99 1014.1
20260507011537 7 0 0.0 0.0 0.00 0.61 0.00 99 1013.9
20260507011037 7 0 0.0 0.0 0.00 0.64 0.00 99 1014.1
20260507010037 7 0 0.0 0.0 0.00 0.69 0.00 99 1014.3
20260507005537 7 0 0.0 0.0 0.00 0.69 0.00 99 1014.0
20260507004537 7 0 0.0 0.0 0.00 0.69 0.00 99 1014.1
20260507004037 7 0 0.0 0.0 0.00 0.71 0.00 99 1014.2
20260507003037 7 0 0.0 0.0 0.00 0.71 0.00 99 1013.9
20260507002537 7 0 0.0 0.0 0.00 0.71 0.00 99 1014.2
20260507002037 7 0 0.0 0.0 0.00 0.71 0.00 99 1014.2
20260507001037 7 0 0.0 0.0 0.00 0.71 0.00 99 1014.2
20260507000037 7 0 0.0 0.0 0.00 0.71 0.00 99 1014.1
20260506235537 7 0 0.0 0.0 0.00 0.71 0.00 99 1014.3
20260506235037 7 0 0.0 0.0 0.00 0.71 0.00 99 1014.2
20260506234537 7 0 0.0 0.0 0.00 0.71 0.00 99 1013.8
20260506234037 7 0 0.0 0.0 0.00 0.71 0.00 99 1014.1
20260506233537 7 0 0.0 0.0 0.00 0.71 0.00 99 1013.9
20260506233037 7 0 0.0 0.0 0.00 0.71 0.00 99 1013.9
20260506232037 7 0 0.0 0.0 0.00 0.71 0.00 99 1014.0
20260506231537 7 0 0.0 0.0 0.00 0.71 0.00 99 1014.0
20260506231037 7 0 0.0 0.0 0.00 0.71 0.00 99 1013.9
20260506230537 7 0 0.0 0.0 0.00 0.71 0.00 99 1013.9
20260506225537 7 0 0.0 0.0 0.00 0.71 0.00 99 1014.1
20260506225037 7 0 0.0 0.0 0.00 0.71 0.00 99 1014.1
20260506224537 7 0 0.0 0.0 0.00 0.71 0.00 99 1014.0
20260506224037 7 0 0.0 0.0 0.00 0.71 0.00 99 1013.9
20260506223537 7 0 0.0 0.0 0.00 0.71 0.00 99 1013.7
20260506223037 7 0 0.0 0.0 0.00 0.71 0.00 99 1014.0
20260506222537 7 0 0.0 0.0 0.00 0.71 0.00 99 1013.9
20260506222037 7 0 0.0 0.0 0.00 0.71 0.00 99 1014.0
20260506221537 7 0 0.0 0.0 0.00 0.71 0.00 99 1013.9
20260506215537 7 0 0.0 0.0 0.00 0.71 0.71 99 1013.5
20260506215037 7 0 0.0 0.0 0.00 0.71 0.71 99 1013.6
20260506214037 7 0 0.0 0.0 0.00 0.71 0.71 99 1013.7
20260506213537 7 0 0.0 0.0 0.00 0.71 0.71 99 1013.5
20260506213037 7 0 0.0 0.0 0.00 0.71 0.71 99 1013.5
20260506212537 7 0 0.0 0.0 0.00 0.71 0.71 99 1013.6
20260506211537 8 0 0.0 0.0 0.00 0.71 0.71 99 1013.5
20260506211037 8 0 0.0 0.0 0.00 0.71 0.71 99 1013.3
20260506210537 8 0 0.0 0.0 0.00 0.71 0.71 99 1013.5
20260506210037 8 0 0.0 0.0 0.00 0.71 0.71 99 1013.5
20260506205536 8 0 0.0 0.0 0.00 0.71 0.71 99 1013.1
20260506205037 8 0 0.0 0.0 0.00 0.71 0.71 99 1013.3
20260506204537 8 45 0.0 3.2 0.00 0.71 0.71 99 1013.2
20260506204037 9 45 0.0 3.2 0.00 0.71 0.71 99 1013.1
20260506203537 9 46 0.0 3.2 0.00 0.71 0.71 99 1013.2
20260506203038 9 0 0.0 0.0 0.00 0.71 0.71 99 1012.8
20260506202537 9 0 0.0 0.0 0.00 0.71 0.71 99 1013.2
20260506202038 9 0 0.0 0.0 0.00 0.71 0.71 99 1012.9
20260506201537 10 0 0.0 0.0 0.00 0.71 0.71 99 1012.8
20260506201038 10 0 0.0 0.0 0.00 0.71 0.71 99 1012.7
20260506200537 10 0 0.0 0.0 0.00 0.71 0.71 99 1012.8
20260506200037 10 0 0.0 0.0 0.00 0.71 0.71 99 1012.9
20260506195037 10 45 0.0 3.2 0.00 0.76 0.71 99 1012.6
20260506194037 11 0 0.0 0.0 0.00 0.76 0.71 98 1012.4
20260506193537 11 46 0.0 3.2 0.00 0.76 0.71 98 1012.5
20260506193037 11 45 0.0 3.2 0.00 0.76 0.71 98 1012.2
20260506192037 12 0 0.0 0.0 0.00 0.76 0.71 97 1012.3
20260506191537 12 0 0.0 0.0 0.00 0.76 0.71 97 1012.1
20260506191037 12 0 0.0 0.0 0.00 0.76 0.71 97 1012.2
20260506190537 12 0 0.0 0.0 0.00 0.76 0.71 97 1011.9
20260506190037 12 0 0.0 0.0 0.00 0.76 0.71 96 1011.7
20260506185537 12 0 0.0 0.0 0.00 0.76 0.71 96 1011.9
20260506185037 12 0 0.0 0.0 0.00 0.76 0.71 96 1011.7
20260506184037 13 0 0.0 0.0 0.00 0.76 0.71 95 1012.0
20260506183537 13 0 0.0 0.0 0.00 0.76 0.71 95 1011.8
20260506183037 13 0 0.0 0.0 0.00 0.76 0.71 94 1011.8
20260506182537 13 0 0.0 0.0 0.00 0.76 0.71 94 1011.7
20260506182037 13 0 0.0 0.0 0.00 0.76 0.71 94 1011.9
20260506181537 13 0 0.0 0.0 0.00 0.76 0.71 93 1011.4
20260506181037 13 0 0.0 0.0 0.00 0.76 0.71 93 1011.6
20260506180537 13 0 0.0 0.0 0.00 0.76 0.71 92 1011.7
20260506180037 13 0 0.0 0.0 0.00 0.76 0.71 92 1011.6
20260506175036 13 0 0.0 0.0 0.00 0.76 0.71 90 1011.5
20260506174537 13 0 0.0 0.0 0.00 0.76 0.71 90 1011.2
20260506173037 13 46 0.0 3.2 0.00 0.79 0.71 85 1011.2
20260506172537 14 0 0.0 0.0 0.00 0.79 0.71 87 1011.2
20260506172037 14 0 0.0 0.0 0.00 0.79 0.71 88 1011.2
20260506171537 14 0 0.0 0.0 0.00 0.79 0.71 91 1011.3
20260506170537 13 0 0.0 0.0 0.00 0.79 0.71 93 1011.2
20260506170037 13 0 0.0 0.0 0.00 0.79 0.71 93 1011.3
20260506165537 13 0 0.0 0.0 0.00 0.79 0.71 93 1011.0
20260506165037 13 0 0.0 0.0 0.00 0.79 0.71 92 1011.3
20260506164537 13 0 0.0 0.0 0.00 0.79 0.71 92 1011.3
20260506164037 13 0 0.0 0.0 0.00 0.79 0.71 92 1011.4
20260506163537 13 0 0.0 0.0 0.00 0.79 0.71 91 1011.3
20260506163037 13 0 0.0 0.0 0.00 0.79 0.71 90 1011.3
20260506162537 13 0 0.0 0.0 0.00 0.79 0.71 92 1011.3
20260506161537 13 0 0.0 0.0 0.00 0.79 0.71 91 1011.2
20260506160537 13 0 0.0 0.0 0.00 0.79 0.71 90 1011.2
20260506155537 13 0 0.0 0.0 0.00 0.79 0.71 89 1011.5
20260506155037 13 0 0.0 0.0 0.00 0.79 0.71 88 1011.1
20260506154537 13 0 0.0 0.0 0.00 0.79 0.71 87 1011.2